BeeSat 9
1 44412U 19038AC 22090.44186865 .00015105 00000-0 79926-3 0 9999
2 44412 97.6285 59.2791 0022645 48.5518 311.7654 15.15318444150871
JAISAT-1
1 44419U 19038F 22090.45211431 .00015601 00000-0 81472-3 0 9995
2 44419 97.6289 60.0651 0021463 46.3331 313.9676 15.15799414151232
LightSail-2
1 44420U 19036AC 22090.82603440 .00085161 00000-0 13975-1 0 9990
2 44420 24.0016 277.4844 0009041 180.1191 179.9303 14.69132181145738
Taurus 1
1 44530U 19059C 22090.83062131 .00001823 00000-0 51673-3 0 9996
2 44530 98.5426 188.6387 0012821 0.5491 359.5737 14.46668642134628
Duchifat 3
1 44854U 19089C 22090.66391598 .00004168 00000-0 33113-3 0 9995
2 44854 36.9628 201.2916 0009167 309.3327 50.6732 15.00409806126243
OPS-SAT
1 44878U 19092F 22089.95302052 .00012205 00000-0 59331-3 0 9993
2 44878 97.4792 274.6602 0011919 251.8660 108.1276 15.18509931126272
TO-108
1 44881U 19093C 22090.91640395 .00000533 00000-0 74412-4 0 9990
2 44881 97.8963 171.2339 0016519 79.4532 280.8542 14.81611829123294
FloripaSat 1
1 44885U 19093G 22090.81813625 .00001851 00000-0 23513-3 0 9990
2 44885 97.8999 172.2272 0015938 87.2793 273.0281 14.82780482123347
RS-44
1 44909U 19096E 22090.55654169 .00000029 00000-0 65948-4 0 9992
2 44909 82.5167 282.0353 0218036 141.6697 220.0130 12.79712628105542
Phoenix
1 45258U 98067RB 22090.89811252 .00154416 00000-0 10125-2 0 9995
2 45258 51.6342 318.3545 0005906 227.2367 132.8136 15.74739201120146
BY70-2
1 45857U 20042B 22090.83874654 .00005644 00000-0 77790-3 0 9997
2 45857 97.9586 168.4835 0010344 17.6589 342.5047 14.78565592 93984
UPMSat 2
1 46276U 20061E 22090.51594430 .00006231 00000-0 31448-3 0 9993
2 46276 97.3981 163.1331 0003006 90.7705 269.3873 15.17459329 87053
AmicalSat
1 46287U 20061R 22090.73111548 .00008988 00000-0 53066-3 0 9995
2 46287 97.4533 162.3537 0003099 157.8728 202.2637 15.11738713 86728
SALSAT
1 46495U 20068K 22090.47080807 .00003160 00000-0 23226-3 0 9999
2 46495 97.7225 31.8058 0016659 175.9240 184.2124 15.04060893 82460
BY70-3
1 46839U 20079N 22090.81334034 .00021602 00000-0 57340-3 0 9990
2 46839 97.2062 164.1024 0005282 243.3662 256.2481 15.38293694 78293
SPOC
1 46921U 98067RR 22090.18825391 .00130026 00000-0 10028-2 0 9997
2 46921 51.6364 334.7452 0003210 164.5649 195.5447 15.71031221 79619
Bobcat-1
1 46922U 98067RS 22090.84133848 .00885381 38184-3 16977-2 0 9997
2 46922 51.6299 316.5246 0008134 232.9563 127.0703 15.99902886 79867
Neutron-1
1 46923U 98067RT 22090.86269697 .00136827 00000-0 10531-2 0 9999
2 46923 51.6373 331.7604 0003317 168.8014 191.3058 15.71054507 79735
CAPE 3
1 47309U 21002A 22090.14432846 .00012690 00000-0 54314-3 0 9991
2 47309 60.6833 298.7618 0017647 229.6887 130.2659 15.23047189 66513
AO-109
1 47311U 21002C 22090.81920203 .00012594 00000-0 52846-3 0 9998
2 47311 60.6861 294.1789 0013766 218.0227 141.9890 15.23778775 66635
MiTEE 1
1 47314U 21002F 22090.75428730 .00026920 00000-0 10088-2 0 9991
2 47314 60.6829 289.7499 0015565 201.2876 158.7567 15.27081792 66719
ExoCube 2
1 47319U 21002L 22090.53377470 .00011590 00000-0 49312-3 0 9996
2 47319 60.6837 296.1350 0014868 225.4011 134.5864 15.23361788 66539
UVSQ-SAT
1 47438U 21006AB 22090.74828119 .00009893 00000-0 53829-3 0 9997
2 47438 97.4469 151.3776 0012549 177.7656 182.3634 15.14586127 65511
YUSAT 1
1 47439U 21006AC 22090.40556957 .00011168 00000-0 60325-3 0 9996
2 47439 97.4472 151.0909 0012366 179.2168 180.9086 15.14813166 65468
SOMP 2b
1 47445U 21006AJ 22090.40194744 .00008553 00000-0 46912-3 0 9995
2 47445 97.4436 150.7661 0012035 182.7897 177.3270 15.14345729 65456
IDEASSat
1 47458U 21006AX 22090.44149012 .00009324 00000-0 51349-3 0 9998
2 47458 97.4529 151.2286 0011229 180.4686 179.6537 15.14184936 65459
RSP-01
1 47925U 98067SB 22090.79122875 .00164418 00000-0 13091-2 0 9991
2 47925 51.6383 341.0356 0002934 167.3767 192.7305 15.70146207 59556
TAUSAT-1
1 47926U 98067SC 22090.18574433 .00254712 00000-0 13517-2 0 9996
2 47926 51.6321 338.4308 0004651 190.2123 169.8785 15.79220561 59524
Tsuru
1 47927U 98067SD 22090.11509945 .00126439 00000-0 11405-2 0 9994
2 47927 51.6380 346.2636 0002436 153.4529 206.6592 15.67244235 59427
STARS-EC
1 47928U 98067SE 22090.82425386 .00580094 00000-0 20659-2 0 9991
2 47928 51.6320 334.4209 0007194 193.6299 166.4512 15.86863639 59626
Maya-2
1 47929U 98067SF 22090.43125329 .00134237 00000-0 12103-2 0 9992
2 47929 51.6381 344.6252 0002222 154.5904 205.5202 15.67225835 59430
OPUSAT-II
1 47930U 98067SG 22090.10307183 .00539920 00000-0 18155-2 0 9999
2 47930 51.6293 336.3460 0006568 207.3589 152.7071 15.88129899 59552
GuaraniSat-1
1 47931U 98067SH 22090.42163846 .00137110 00000-0 12276-2 0 9994
2 47931 51.6392 344.5770 0002229 153.4176 206.6934 15.67387318 59478
CubeSX-Sirius-HSE
1 47951U 21022V 22090.86958019 .00004481 00000-0 30422-3 0 9993
2 47951 97.5375 352.0249 0023019 53.6954 306.6453 15.06684711 56317
CubeSX-HSE
1 47952U 21022W 22090.80898591 .00005112 00000-0 34591-3 0 9999
2 47952 97.5379 351.9801 0022918 53.5759 32.0522 15.06741566 56301
KSU-Cubesat
1 47954U 21022Y 22090.70156058 .00007576 00000-0 50818-3 0 9991
2 47954 97.5389 351.9491 0022624 54.2198 306.1129 15.06912797 56010
GRBAlpha
1 47959U 21022AD 22090.80597462 .00005147 00000-0 34814-3 0 9995
2 47959 97.5382 352.0068 0022556 54.1150 19.8650 15.06757877 55125
Orbicraft-Zorkiy
1 47960U 21022AE 22090.78969838 .00004740 00000-0 32011-3 0 9999
2 47960 97.5400 352.0943 0022609 54.1488 33.7530 15.06861603 55814
STECCO
1 47962U 21022AG 22090.76638227 .00006561 00000-0 42419-3 0 9990
2 47962 97.5368 352.5642 0017988 48.5648 39.0514 15.08404867 55154
DO-111
1 47963U 21022AH 22090.52825976 .00025996 00000-0 15633-2 0 9994
2 47963 97.5399 352.9199 0019824 46.0844 314.2018 15.10664360 55170
MO-110
1 47964U 21022AJ 22090.28244663 .00011751 00000-0 74839-3 0 9994
2 47964 97.5379 352.2886 0020318 47.7130 312.5817 15.08738679 55092
FEES
1 48082U 21022AL 22090.49480118 .00015778 00000-0 10026-2 0 9996
2 48082 97.5388 352.3657 0016602 45.5213 314.7370 15.08810993 54828
RamSat
1 48850U 98067SL 22090.44653650 .00075092 00000-0 90853-3 0 9992
2 48850 51.6409 352.9602 0005311 137.2049 222.9358 15.59993659 45118
MO-112
1 48868U 98067SP 22090.77004200 .00510372 00000-0 20975-2 0 9990
2 48868 51.6306 340.7928 0007800 193.6846 166.3947 15.84050872 44084
TUBIN
1 48900U 21059X 22090.83187924 .00004643 00000-0 26514-3 0 9991
2 48900 97.5396 220.8545 0010473 19.2373 100.6465 15.13167660 42170
IT-SPINS
1 49017U 21013G 22090.31507677 .00017123 00000-0 69072-3 0 9998
2 49017 51.5943 53.2040 0009410 150.1168 210.0348 15.24859796 41852
LEDSAT
1 49069U 21073D 22090.83240969 .00007201 00000-0 46878-3 0 9991
2 49069 97.5292 165.2780 0027363 197.6949 162.3329 15.07942898 34139
CUTE
1 49263U 21088D 22090.42253563 .00005410 00000-0 41210-3 0 9997
2 49263 97.5924 159.9190 0020065 331.4132 28.5991 15.02320563 27703
Binar-1
1 49272U 98067SR 22090.16799810 .00081655 00000-0 10371-2 0 9997
2 49272 51.6406 357.8301 0003272 62.4254 297.7071 15.58686350 27416
Maya-3
1 49273U 98067SS 22090.78059383 .00110873 00000-0 12680-2 0 9990
2 49273 51.6398 353.6742 0002703 79.4412 280.6886 15.61299639 27523
Maya-4
1 49274U 98067ST 22090.14871595 .00109832 00000-0 12700-2 0 9994
2 49274 51.6397 356.9516 0002614 77.6808 282.4479 15.61018258 27421
CUAVA-1
1 49275U 98067SU 22090.82176775 .00075496 00000-0 90399-3 0 9997
2 49275 51.6423 353.7806 0003614 77.7835 357.6512 15.60271394 27470
TeikyoSat 4
1 49396U 21102B 22090.53694955 .00000886 00000-0 74768-4 0 9994
2 49396 97.5457 151.0268 0020248 159.0403 201.1655 15.00463592 21368
Z-Sat
1 49399U 21102E 22090.84074114 .00003509 00000-0 26889-3 0 9995
2 49399 97.5480 151.7270 0024154 133.8227 226.5000 15.02247265 21433
KOSEN 1
1 49402U 21102H 22090.82146100 .00003723 00000-0 27789-3 0 9991
2 49402 97.5402 151.7882 0024584 122.0007 238.3612 15.03196149 21440
HO-113
1 50466U 21131B 22090.68468860 .00000295 00000-0 11134-3 0 9997
2 50466 98.5841 167.9670 0004833 36.6546 323.4971 14.38455837 13733
Tevel
1 50999U 22002R 22090.46078935 .00011711 00000-0 65519-3 0 9993
2 50999 97.4883 158.8325 0010573 334.7374 25.3339 15.13567094 11628
Grizu-263a
1 51025U 22002AT 22090.43539634 .00020039 00000-0 10914-2 0 9990
2 51025 97.5055 159.0434 0012350 338.4798 21.5913 15.14386651 11626
NO-116
1 51031U 22002AZ 22089.71267439 .00011222 00000-0 61861-3 0 9999
2 51031 97.5015 158.2767 0012687 341.3898 18.6868 15.14086176 11519
IRIS-A
1 51044U 22002BN 22090.43250957 .00006374 00000-0 36792-3 0 9998
2 51044 97.4899 158.7363 0008651 342.9853 17.1086 15.12650062 11619
DELFI-PQ
1 51074U 22002CU 22090.76998954 .00017640 00000-0 93111-3 0 9999
2 51074 97.5135 159.5992 0013984 9.5377 350.6118 15.15507356 11683
SO-115
1 51080U 22002DA 22090.90981810 .00012879 00000-0 68774-3 0 9991
2 51080 97.5152 159.7324 0013767 9.6022 350.5470 15.15171837 11701
SO-114
1 51081U 22002DB 22090.44812811 .00011898 00000-0 63586-3 0 9991
2 51081 97.5140 159.2662 0014102 10.9482 349.2055 15.15158605 11632
GASPACS
1 51439U 98067TB 22090.46463846 .00203471 00000-0 23004-2 0 9994
2 51439 51.6402 359.0536 0004989 231.5926 128.4620 15.61236450 9983
